Location: Little Somborne
(51.0833°N, 1.4500°W)
Time: 00:27:08
(UTC+00:00)

Daily predictions for brighter satellites

Satellite Brightness Start Highest point End
(mag) Time Altitude Azimuth Time Altitude Azimuth Time Altitude Azimuth
USA 215 4.3 03:21:31 10° E 03:25:43 41° ENE 03:25:43 41° ENE
Cosmos 1943 Rocket 3.3 04:06:38 39° ESE 04:07:12 40° ESE 04:12:27 10° NE
CZ-2C R/B 4.2 04:05:46 10° SE 04:10:36 33° ENE 04:13:25 20° NNE
CENTAUR R/B 3.1 04:16:08 48° SSE 04:17:06 52° ESE 04:23:58 10° NE
Cosmos 2297 4.4 04:21:07 46° SE 04:22:02 51° ESE 04:27:34 10° NE
NOSS 3-2 (A) 3.5 04:27:50 71° SE 04:27:55 71° SE 04:34:28 10° NE
Cosmos 2278 Rocket 3.6 04:33:50 27° N 04:33:50 27° N 04:36:35 10° NNE
NOSS 3-2 (C) 4.1 04:33:35 34° S 04:35:38 49° ESE 04:41:50 10° NE
Meteor 2-3 Rocket 4.0 04:37:37 10° S 04:43:13 68° E 04:48:57 10° NNE
Cosmos 968 Rocket 4.2 04:42:38 18° S 04:46:16 51° ESE 04:51:14 10° NNE
Cosmos 921 Rocket 3.7 04:50:36 50° SE 04:50:36 50° SE 04:54:00 10° SSE
DNEPR-1 R/B 4.0 04:53:14 65° NNE 04:53:28 66° NE 04:58:48 10° SE
Meteor 1-26 Rocket 4.2 04:53:50 46° NNW 04:55:44 83° W 05:01:32 10° S
Cosmos 1812 3.7 04:56:57 44° ESE 04:56:57 44° ESE 04:59:56 10° SSE
H-2A R/B 4.4 04:54:31 10° ESE 04:57:45 21° ENE 05:01:03 10° N
Cosmos 1151 Rocket 3.5 05:01:35 39° NNE 05:03:01 60° ENE 05:07:21 10° SSE
USA 238 DEB 3.7 05:00:10 31° SSW 05:03:33 79° SE 05:10:29 10° NE
USA 238 3.7 05:00:14 31° SSW 05:03:39 78° SE 05:10:35 10° NE
Cosmos 2344 3.4 05:03:34 42° WSW 05:06:21 75° NW 05:14:31 10° NE
USA 215 3.2 05:04:24 10° SE 05:10:55 72° SW 05:13:03 45° WNW
Cosmos 1816 Rocket 4.4 05:07:03 21° SSW 05:11:13 61° WNW 05:17:29 10° N
Kosmos-917 3.8 05:12:30 77° ESE 05:12:30 77° ESE 05:17:22 10° NE
Cosmos 2297 Rocket 4.3 05:09:40 11° N 05:13:19 18° NNE 05:17:09 10° ENE
Meteor 1-31 Rocket 3.6 05:09:33 10° NNE 05:13:22 49° E 05:17:09 10° S
Cosmos 2279 Rocket 4.2 05:07:19 10° N 05:13:32 72° ENE 05:19:43 10° SSE
Cosmos 1328 Rocket 4.1 05:12:41 19° N 05:15:41 58° ENE 05:20:00 10° SSE
SJ-12 4.0 05:14:40 10° NNE 05:18:50 78° ESE 05:22:58 10° S
FALCON 9 DEB 3.7 05:21:07 54° SE 05:21:07 54° SE 05:24:11 10° ENE
Cosmos 2369 Rocket 2.5 05:16:06 10° SSW 05:21:37 65° ESE 05:27:11 10° NE
Cosmos 1862 4.0 05:19:53 10° S 05:23:43 53° E 05:27:36 10° NNE
COSMO-SKYMED 1 2.4 05:20:53 10° S 05:25:12 69° WSW 05:25:48 59° NW
H-2A R/B 2.5 05:23:06 10° NNE 05:26:49 86° WNW 05:30:33 10° SSW
Cosmos 1634 Rocket 3.9 05:22:24 10° NNW 05:28:37 63° W 05:34:45 10° S
Cosmos 836 Rocket 4.4 05:27:51 38° NW 05:29:52 70° WSW 05:35:03 10° SSE
Lacrosse 4 Rocket 4.0 05:33:56 10° N 05:35:27 11° NNE 05:36:59 10° NE
Tsikada Rocket 4.1 05:33:03 10° SSW 05:39:03 49° WNW 05:45:10 10° N
CZ-4B R/B 3.9 05:38:44 10° ESE 05:41:17 21° ENE 05:43:49 10° NNE
MOS 1-B Rocket 4.2 05:35:44 10° S 05:41:39 43° W 05:44:44 24° NW
YAOGAN 6 3.9 05:38:17 10° N 05:40:14 28° N 05:40:14 28° N
SAR-Lupe-3 4.4 05:40:25 10° N 05:44:00 72° WNW 05:47:35 10° SSW
Gblst 52 Del rocket 4.5 05:41:33 29° WSW 05:44:57 86° SSE 05:51:59 10° E
Cosmos 1656 Rocket 3.8 05:39:54 10° SSW 05:45:16 72° ESE 05:50:43 10° NNE
CZ-4C R/B 2.6 05:43:01 10° S 05:46:01 64° WSW 05:46:01 64° WSW
DMSP B5D2-2 4.1 05:41:28 10° SSE 05:46:40 79° ENE 05:51:54 10° NNW
Cosmos 2227 Rocket 4.2 05:44:37 10° NNW 05:48:53 21° NE 05:53:08 10° E
CZ-2C R/B 2.9 05:45:30 10° S 05:50:46 47° W 05:54:54 16° NNW
Cosmos 1943 Rocket 2.5 05:48:15 27° WSW 05:50:57 44° NW 05:56:22 10° NNE
Cosmos 1486 Rocket 3.9 05:48:10 10° SSW 05:53:28 78° WNW 05:58:47 10° NNE
Cosmos 1515 Rocket 3.6 05:51:38 10° N 05:56:03 81° E 06:00:23 10° SSE
SL-8 R/B 4.3 05:54:21 28° WSW 05:56:25 45° SSW 06:00:58 10° SE
FALCON 9 DEB 2.5 05:56:51 63° NW 05:57:07 69° NNW 06:00:01 10° ENE
Meteor 2-15 4.3 05:51:09 10° NNW 05:57:15 84° W 06:03:18 10° S
Cosmos 2180 Rocket 4.4 05:52:42 10° NNW 05:58:53 73° W 06:04:59 10° S
Meteor 1-27 Rocket 3.9 05:53:19 10° N 05:58:57 74° ENE 06:04:40 10° SSE
COSMOS 2487 4.0 05:59:58 11° N 06:02:55 31° ENE 06:05:57 10° ESE
Iridium 2 4.1 05:59:23 10° SSW 06:02:56 38° WNW 06:06:30 10° N
Cosmos 773 Rocket 3.9 05:58:38 13° NNW 06:03:19 87° WSW 06:08:31 10° SSE
FALCON 9 DEB 2.7 06:03:16 50° NW 06:03:43 60° N 06:06:33 10° ENE
Cosmos 2084 Rocket 4.3 06:04:32 25° NW 06:04:59 26° NNW 06:08:19 10° NNE
FALCON 9 DEB 2.8 06:05:15 47° NW 06:05:46 58° N 06:08:37 10° ENE
Cosmos 2297 4.3 06:03:08 20° WSW 06:06:25 37° NW 06:11:43 10° NNE
SJ 16-02 3.1 06:03:15 10° S 06:07:15 35° ESE 06:11:16 10° NE
NOAA 11 4.2 06:02:12 10° NNE 06:07:43 90° SSW 06:13:12 10° SSW
CENTAUR R/B 2.9 06:03:21 19° WSW 06:07:52 52° NNW 06:15:17 10° NE
Alouette 2 Rocket 3.9 06:05:24 10° N 06:09:29 56° ENE 06:12:59 10° SSE
NOAA 12 4.5 06:07:35 10° NNE 06:12:52 68° ESE 06:18:06 10° S
Envisat 3.4 06:09:07 10° N 06:13:51 41° WNW 06:18:35 10° SW
Meteor 2-19 Rocket 4.5 06:07:50 10° S 06:13:53 84° E 06:20:00 10° NNE
Cosmos 1340 Rocket 3.9 06:11:48 10° S 06:15:36 47° E 06:19:28 10° NNE
SL-27 R/B 2.4 06:14:05 18° NNW 06:16:39 74° WSW 06:20:12 10° SSE
Cosmos 2278 Rocket 3.8 06:15:42 15° NW 06:16:45 15° NNW 06:20:00 10° N
Cosmos 1500 Rocket 4.2 06:14:40 10° S 06:19:03 61° E 06:23:29 10° NNE
NOSS 3-2 (A) 4.0 06:15:14 19° W 06:19:15 41° NNW 06:25:50 10° NE
Cosmos 1939 Rocket 3.3 06:15:30 10° NNE 06:19:27 64° ESE 06:23:19 10° S
FALCON 9 DEB 2.7 06:21:30 28° W 06:22:47 60° N 06:25:39 10° ENE
Cosmos 2098 Rocket 3.8 06:20:05 10° SW 06:23:49 33° WNW 06:28:26 10° N
Aureole 1 Rocket 4.4 06:26:24 12° NNW 06:26:24 12° NNW 06:27:04 10° N
NOSS 3-2 (C) 3.7 06:21:05 11° WSW 06:26:33 50° NNW 06:33:16 10° NE
Cosmos 968 Rocket 4.2 06:23:48 10° WSW 06:28:19 30° NW 06:32:51 10° N
Okean O Rocket 4.4 06:26:17 10° NE 06:29:39 21° E 06:32:59 10° SE
Cosmos 1812 4.5 06:32:03 15° W 06:32:03 15° W 06:33:43 10° WSW
Okean 3 Rocket 4.1 06:28:12 10° SW 06:32:25 36° WNW 06:36:40 10° N
H-2A R/B 2.2 06:29:10 10° S 06:33:21 56° WSW 06:37:40 10° NNW
ATLAS 3B R/B 3.9 06:29:02 10° S 06:35:10 45° ESE 06:41:37 10° NE
ADEOS 3.8 06:32:57 10° N 06:37:59 49° WNW 06:42:59 10° SW
Cosmos 158 Rocket 4.0 06:33:35 10° NNW 06:38:42 87° ENE 06:43:55 10° SSE
ATLAS 5 CENTAUR R/B 3.0 06:35:18 10° SSW 06:38:55 39° ESE 06:42:59 10° NE
Cosmos 1515 3.6 06:40:46 10° NNW 06:44:33 75° W 06:48:21 10° S
Meteor PRIRODA 4.0 06:42:00 10° N 06:45:25 40° WNW 06:48:50 10° SW
Okean 1 3.7 06:41:34 10° N 06:45:31 64° ENE 06:49:26 10° SSE
Cosmos 1354 Rocket 4.1 06:40:49 10° SW 06:46:01 60° WNW 06:51:19 10° NNE
CZ-2C R/B 3.0 06:41:40 10° N 06:46:22 55° WNW 06:51:14 10° SW
Meteor 1-31 Rocket 4.1 06:44:38 10° NNW 06:47:25 19° WNW 06:50:13 10° WSW
USA 215 4.4 06:49:27 10° S 06:54:42 26° SW 06:59:58 10° WNW
USA 238 DEB 4.2 06:48:51 10° W 06:55:06 41° NNW 07:01:46 10° NE
USA 238 4.2 06:48:57 10° W 06:55:12 41° NNW 07:01:52 10° NE
OPS 6432 4.4 06:54:38 10° NW 06:57:33 67° NE 07:00:48 10° SE
FALCON 9 DEB 3.2 06:54:15 10° W 06:57:37 63° N 07:01:01 10° ENE
Cosmos 2297 Rocket 2.7 06:52:58 10° NNW 06:58:36 60° NE 07:04:12 10° SE
SMAP 3.0 06:54:58 10° N 06:59:37 68° WNW 07:04:14 10° SSW
FengYun 1-2 T 4.2 06:57:22 10° N 07:02:49 64° WNW 07:08:13 10° SSW
CZ-4 R/B 4.1 07:02:29 10° NE 07:05:31 21° E 07:08:30 10° SE
CZ-2D R/B 3.2 07:02:13 10° NNE 07:06:01 83° WNW 07:09:49 10° SSW
Cosmos 2369 Rocket 3.0 07:01:13 10° WSW 07:06:06 30° NW 07:11:01 10° NNE
Cosmos 1666 4.1 07:05:21 10° SSE 07:08:58 43° E 07:12:34 10° NNE
CZ-4B R/B 3.6 07:08:06 10° N 07:11:06 25° WNW 07:14:05 10° WSW
Cosmos 2228 Rocket 3.4 07:07:39 10° NNW 07:11:58 48° W 07:16:18 10° SSW
Cosmos 1538 Rocket 4.3 07:07:10 10° NNW 07:12:15 51° WSW 07:17:16 10° S
Nadezhda 4 Rocket 4.3 07:06:31 10° SW 07:12:22 44° WNW 07:18:20 10° N
H-2A R/B 2.1 07:08:07 10° NNE 07:13:04 83° ESE 07:17:59 10° SSW
CZ-4B R/B 2.2 07:10:07 10° SSW 07:13:08 31° W 07:16:07 10° NNW
Cosmos 1633 Rocket 4.1 07:10:48 10° S 07:14:58 50° E 07:19:11 10° NNE
Cosmos 1607 4.0 07:08:47 10° NW 07:15:04 75° SW 07:21:12 10° SSE
Lacrosse 4 Rocket 3.0 07:11:29 10° NNW 07:15:29 32° NE 07:19:31 10° ESE
